Terminal Aerodrome Forecast
Issued by NWS

Home | Current Version | Previous Version | Text Only | Print | Product List | Glossary On
Versions: 1 2 3 4 5 6 7 8 9 10 11 12 13 14 15 16 17 18 19 20 21 22 23 24 25
000
FTUS45 KSLC 191120
TAFPVU
TAF
KPVU 191120Z 1912/2012 VRB04KT P6SM VCTS SCT060CB BKN090
     FM191300 19005KT P6SM SCT100
     FM191900 34007KT P6SM SCT100
     FM200300 16005KT P6SM SKC
      AMD LTD TO CLD VIS AND WIND=

USA.gov is the U.S. government's official web portal to all federal, state and local government web resources and services.